Flag for Canada Weather past 2 weeks in Guelph, Ontario, Canada

46 °F

Low clouds.

Feels Like: 40 °F
Forecast: 46 / 56 °F
Wind: 16 mph from East

Location: Waterloo Well

Current Time: Oct 4, 2015 at 6:05:15 AM

Latest Report: Oct 4, 2015 at 5:00 AM

Visibility: 9 mi

Pressure: 30.29 "Hg

Humidity: 100%

Dew point: 46 °F

Location of GuelphLocation

Historic Weather in Guelph — Graph


Guelph temperature yesterday

Maximum temperature yesterday: 50 °F (at 1:00 PM)
Minimum temperature yesterday: 41 °F (at 5:00 AM)
Average temperature yesterday: 45 °F

Past Weeks' High & Low Weather Summary

High77 °F (Sep 23, 3:00 PM)100% (Sep 19, 5:00 AM)30.46 "Hg (Sep 19, 5:00 AM)
Low39 °F (Oct 1, 6:00 AM)28% (Sep 23, 4:00 PM)29.68 "Hg (Sep 19, 2:01 PM)
Average56 °F79%30.23 "Hg
* Reported Sep 19 5:00 AM — Oct 4 5:00 AM, Guelph, Weather by CustomWeather, © 2015

Note: Actual official high and low records may vary slightly from our data, if they occured in-between our weather recording intervals... More about our weather records


Guelph weather history for previous 24 hours

Time TempWeatherWind HumidityBarometerVisibility
5:00 AM
Sun, Oct 4
46 °FLow clouds.16 mph100%30.29 "Hg9 mi
4:00 AM46 °FLow clouds.17 mph100%30.29 "Hg9 mi
3:01 AM46 °FLight rain. Fog.14 mph93%30.30 "Hg6 mi
2:00 AM46 °FLight rain. Low clouds.18 mph93%30.30 "Hg9 mi
1:50 AM46 °FLight rain. Fog.18 mph93%30.30 "Hg6 mi
1:00 AM46 °FLight rain. Overcast.20 mph93%30.31 "Hg7 mi
12:00 AM48 °FMostly cloudy.22 mph82%30.31 "Hg9 mi
11:00 PM
Sat, Oct 3
48 °FMostly cloudy.20 mph82%30.32 "Hg9 mi
10:04 PM46 °FLight rain. Mostly cloudy.18 mph87%30.33 "Hg7 mi
9:00 PM46 °FMostly cloudy.13 mph82%30.34 "Hg9 mi
8:00 PM45 °FMostly cloudy.12 mph81%30.35 "Hg9 mi
7:00 PM45 °FMore clouds than sun.17 mph87%30.35 "Hg9 mi
6:02 PM45 °FMostly cloudy.14 mph93%30.34 "Hg9 mi
5:00 PM45 °FLight rain. Mostly cloudy.20 mph93%30.34 "Hg9 mi
4:00 PM45 °FLight rain. Overcast.20 mph87%30.34 "Hg9 mi
3:00 PM48 °FLight rain. Mostly cloudy.29 mph71%30.33 "Hg9 mi
2:58 PM48 °FLight rain. Mostly cloudy.25 mph71%30.33 "Hg9 mi
2:00 PM50 °FCloudy.22 mph62%30.34 "Hg9 mi
1:00 PM50 °FOvercast.31 mph62%30.35 "Hg9 mi
12:00 PM48 °FPartly sunny.29 mph66%30.37 "Hg9 mi
11:00 AM46 °FMostly cloudy.18 mph66%30.38 "Hg9 mi
10:01 AM45 °FMostly cloudy.23 mph66%30.39 "Hg9 mi
9:00 AM43 °FPartly sunny.17 mph66%30.41 "Hg9 mi
8:00 AM41 °FPassing clouds.21 mph61%30.38 "Hg9 mi
7:00 AM41 °FOvercast.17 mph61%30.39 "Hg9 mi
6:00 AM41 °FOvercast.18 mph61%30.39 "Hg9 mi
Weather by CustomWeather, © 2015

See weather overviewHow to use our weather pages